Weather in Vyshesteblievskaya

Russia / Krasnodar Krai     45°11′37″N   36°59′52″E
temp.,
°C
wind,
m/s
gust,
m/s
humid.,
%
clouds,
%
prec.,
mm/h
press.,
hPa
HPBL,
m
15 may, sat
sat1500:00+16wsw22672 0.0 101212
03:00+15w2282100 0.1 101321
06:00+15n118619 0.0 101324
09:00+19n226494 0.0 1014295
12:00+22n21545 0.0 1014565
15:00+24n22495 0.0 1014582
18:00+21nne5559100 0.0 1013189
21:00+17ne357583 0.0 101374
16 may, sun
sun1600:00+17nne3572100 0.0 101269
03:00+15ne4679100 0.0 101197
06:00+16ene488098 0.0 1010146
09:00+20ene69595 0.0 1009270
12:00+23ne67608 0.0 1008386
15:00+24nne6865100 0.0 1006298
18:00+22nne8117714 0.3 1004204
21:00+20ne4685100 0.3 100479
17 may, mon
mon1700:00+19ene479495 0.8 100399
03:00+19sse3396100 0.8 100246
06:00+16sse6109893 0.0 1003177
09:00+16s91095100 0.1 1005287
12:00+19s7882100 0.0 1008417
15:00+17s7883100 0.0 1009287
18:00+16s678933 0.2 1009283
21:00+15s610931 1.5 1011312
18 may, tue
tue1800:00+15s57942 0.1 1011187
03:00+15s68947 0.1 1011213
06:00+15s46944 0.0 1012173
09:00+17ssw78770 0.0 1013385
12:00+18s897472 0.0 1014540
15:00+19ssw8107311 0.0 1014504
18:00+18ssw710745 0.0 1014398
21:00+16s711850 0.0 1014295
19 may, wed
wed1900:00+16s8128727 0.0 1015320
03:00+15s7128763 0.0 1014280
06:00+16s6118896 0.0 1014305
09:00+18sse5875100 0.0 1014328
12:00+21s5663100 0.0 1013523
15:00+21s69619 0.0 1011353
18:00+21s47625 0.0 1009178
21:00+19e337785 0.0 100927